Voltar ao catálogo

STARLINK-2578

AtivoComunicaçõesVLEO
NORAD 48362·PAYLOAD·🇺🇸 United States

Lançado May 4, 2021 de Cape Canaveral Space Force Station

Loading…

Próximas Passagens (próximas 24 horas)

TLE

AtualizadoSource: CelesTrak SupGP

Época: Sep 14, 2026, 20:25 UTC

1 48362C 21038K   26257.85118056  .00017108  00000+0  55012-3 0  2572
2 48362  53.1605 197.8181 0001554  96.9157 350.4050 15.31694871    15

Acompanhe STARLINK-2578 em tempo real com AllMySat

Download on the App Store